Miscellaneous Local Product
Issued by NWS Hastings, NE

Home | Current Version | Previous Version | Text Only | Print | Product List | Glossary Off
Versions: 1 2 3 4 5 6 7 8 9 10 11 12 13 14 15 16 17 18 19 20 21 22 23 24 25 26 27 28 29 30 31 32 33 34 35 36 37 38 39 40 41 42 43 44 45 46 47 48 49 50

848
AXUS43 KGID 161902
MISGRI

GID CWA HOURLY WEATHER ROUNDUP
NATIONAL WEATHER SERVICE HASTINGS NE
100 PM CST MON JAN 16 2017

NOTE: "FAIR" INDICATES FEW OR NO CLOUDS BELOW 12,000 FEET WITH NO
SIGNIFICANT WEATHER AND/OR OBSTRUCTIONS TO VISIBILITY.

...SOUTH CENTRAL NEBRASKA...

CITY           SKY/WX    TMP DP  RH WIND       PRES   REMARKS
GRAND ISLAND   FRZ RAIN N/A N/A N/A N7        29.91F FOG
HASTINGS       MIX PCPN  32  30  92 N15       29.90F WCI  22
KEARNEY        CLOUDY    32  28  86 N5        29.91F WCI  27
ORD            LGT RAIN  32  29  88 N16       29.96F FOG     WCI  21
YORK           LGT RAIN  32  32 100 CALM      29.90F
AURORA         MIX PCPN  32  32  99 N5        29.89F WCI  27
LEXINGTON      DRIZZLE   33  32  94 N10       29.93F WCI  25
HOLDREGE       DRIZZLE   32  31  97 N5        29.90F WCI  28
HEBRON         CLOUDY    32  32 100 N3        29.87F FOG

...NEBRASKA PANHANDLE...

CITY           SKY/WX    TMP DP  RH WIND       PRES   REMARKS
CHADRON        SUNNY     30  16  56 NW15      30.10F WCI  19
ALLIANCE       CLOUDY    37  17  44 N17       30.04F WCI  27
SCOTTSBLUFF    CLOUDY    38  18  44 MISG      30.08F
SIDNEY         CLOUDY    34  19  54 N22       30.04F WCI  22

...WESTERN AND NORTH CENTRAL NEBRASKA...

CITY           SKY/WX    TMP DP  RH WIND       PRES   REMARKS
VALENTINE      CLOUDY    33  13  43 NW15      30.03F WCI  23
AINSWORTH      CLOUDY    33  28  80 N10       30.01S WCI  25
ONEILL         MIX PCPN  30  28  92 N9        30.01S WCI  21
BROKEN BOW     LGT RAIN  33  30  88 N24       29.95F FOG     WCI  20
IMPERIAL       LGT SNOW  33  30  88 N22       29.97S FOG     WCI  21
NORTH PLATTE   CLOUDY    34  30  85 NW10      29.97S WCI  26
MCCOOK         CLOUDY    34  33  96 N8        29.94F FOG     WCI  27

...EASTERN NEBRASKA...

CITY           SKY/WX    TMP DP  RH WIND       PRES   REMARKS
NORFOLK        FRZ RAIN  31  29  92 N15       29.94F FOG     WCI  20
SO SIOUX CITY  LGT RAIN  34  32  92 N12       29.98F FOG     WCI  25
TEKAMAH        LGT RAIN  33  31  92 N14       29.94F FOG     WCI  23
COLUMBUS       CLOUDY    32  30  93 CALM      29.92F
ALBION         MIX PCPN  32  31  94 N9        29.94F WCI  25
OMAHA EPPLEY   LGT RAIN  34  30  85 N8        29.91F FOG     WCI  27
OFFUTT AFB     LGT RAIN  32  32 100 N6        29.90F WCI  26
MILLARD        LGT RAIN  35  34  94 CALM      29.91F
LINCOLN        CLOUDY    33  32  96 N10       29.91F FOG     WCI  25
NEBRASKA CITY  FOG       32  32 100 NE5       29.87F VSB 1/4 WCI  28
BEATRICE       CLOUDY    33  33 100 NE5       29.86F FOG     WCI  28
FALLS CITY     FOG       35  35 100 NE6       29.85F VSB 3/4 WCI  30

...NORTHERN KANSAS...

CITY           SKY/WX    TMP DP  RH WIND       PRES   REMARKS
GOODLAND       CLOUDY    33  32  96 N14       29.93S FOG     WCI  23
HILL CITY      LGT SNOW  33  33 100 N10       29.91S FOG     WCI  25
NORTON         CLOUDY    34  30  86 N5        29.90F WCI  30
PHILLIPSBURG   FLURRIES  34  34 100 N5        29.90F WCI  30
SMITH CENTER   MIX PCPN  30  30 100 N5        29.89S WCI  25
HAYS           CLOUDY    33  31  92 N12       29.88F WCI  24
RUSSELL        CLOUDY    32  32 100 N9        29.86S FOG     WCI  24
CONCORDIA      CLOUDY    32  32 100 N7        29.84F FOG     WCI  26
SALINA         CLOUDY    36  34  92 NW7       29.84F FOG     WCI  30
TOPEKA         CLOUDY    46  43  89 CALM      29.83F



USA.gov is the U.S. government's official web portal to all federal, state and local government web resources and services.